Weather History for Boonville, MO

Change the Weather History Date:

Friday, November 23, 2012

  Actual Average Record
Temperature  
Mean Temperature 36 °F -  
Max Temperature 46 °F 50 °F 75 °F (1966)
Min Temperature 27 °F 29 °F 14 °F (1970)
Degree Days  
Heating Degree Days 28    
Moisture  
Dew Point 21 °F    
Average Humidity 54    
Maximum Humidity 79    
Minimum Humidity 35    
Precipitation  
Precipitation 0.00 in - - ()
Sea Level Pressure  
Sea Level Pressure 30.34 in    
Wind  
Wind Speed 10 mph (WNW)    
Max Wind Speed 21 mph    
Max Gust Speed 29 mph    
Visibility 10 miles    
Events      
Averages and records for this station are not official NWS values.
T = Trace of Precipitation, MM = Missing Value Source: NWS Daily Summary

Daily Weather History Graph

Daily Weather History Graph

Search for Another Location

Airport:

Trip Planner

Search our weather history database for the weather conditions in past years. The results will help you decide how hot, cold, wet, or windy it might be!

Date:

Astronomy

Nov. 23, 2012 Rise Set
Actual Time 7:02 AM CST 4:51 PM CST
Civil Twilight 6:33 AM CST 5:20 PM CST
Nautical Twilight 6:01 AM CST 5:53 PM CST
Astronomical Twilight 5:29 AM CST 6:25 PM CST
Moon 2:04 PM CST (11/23) 2:24 AM CST (11/23)
Length of Visible Light 10h 46m
Length of Day
9h 48m
Waxing Gibbous, 80% of the Moon is Illuminated
Nov 23
Waxing Gibbous
Nov 28
Full
Dec 6
Last Quarter
Dec 13
New
Dec 19
First Quarter

Hourly Weather History & Observations

Time (CST) Temp. Windchill Dew Point Humidity Pressure Visibility Wind Dir Wind Speed Gust Speed Precip Events Conditions
12:15 AM 46.0 °F 41.4 °F 33.4 °F 61% 30.21 in 10.0 mi NW 9.2 mph - N/A   Clear
12:35 AM 45.1 °F 40.3 °F 33.6 °F 64% 30.22 in 10.0 mi NNW 9.2 mph - N/A   Clear
12:55 AM 44.4 °F 40.0 °F 33.8 °F 66% 30.22 in 10.0 mi NW 8.1 mph - N/A   Clear
1:15 AM 44.1 °F 40.1 °F 34.0 °F 68% 30.22 in 10.0 mi NW 6.9 mph - N/A   Clear
1:35 AM 43.2 °F 40.5 °F 34.0 °F 70% 30.23 in 10.0 mi WNW 4.6 mph - N/A   Clear
1:55 AM 43.2 °F 41.5 °F 34.0 °F 70% 30.23 in 10.0 mi West 3.5 mph - N/A   Clear
2:15 AM 43.0 °F 40.3 °F 33.6 °F 70% 30.23 in 10.0 mi West 4.6 mph - N/A   Clear
2:35 AM 42.1 °F 39.2 °F 33.4 °F 71% 30.23 in 10.0 mi West 4.6 mph - N/A   Clear
2:55 AM 41.7 °F 38.8 °F 33.4 °F 72% 30.23 in 10.0 mi WSW 4.6 mph - N/A   Clear
3:15 AM 40.6 °F 36.7 °F 33.4 °F 75% 30.23 in 10.0 mi WSW 5.8 mph - N/A   Clear
3:35 AM 40.1 °F 36.1 °F 33.3 °F 77% 30.22 in 10.0 mi SW 5.8 mph - N/A   Clear
3:55 AM 39.7 °F 36.5 °F 33.3 °F 78% 30.22 in 10.0 mi SW 4.6 mph - N/A   Clear
4:15 AM 39.2 °F 35.0 °F 33.1 °F 79% 30.22 in 10.0 mi SW 5.8 mph - N/A   Clear
4:35 AM 39.9 °F 34.5 °F 32.7 °F 75% 30.22 in 10.0 mi West 8.1 mph - N/A   Clear
4:55 AM 42.4 °F 35.7 °F 30.7 °F 63% 30.22 in 10.0 mi West 12.7 mph 23.0 mph N/A   Clear
5:15 AM 42.6 °F 35.9 °F 28.9 °F 58% 30.23 in 10.0 mi WNW 12.7 mph 17.3 mph N/A   Clear
5:35 AM 41.9 °F 35.4 °F 28.4 °F 59% 30.24 in 10.0 mi WNW 11.5 mph 18.4 mph N/A   Clear
5:55 AM 41.2 °F 33.7 °F 28.0 °F 60% 30.25 in 10.0 mi WNW 13.8 mph 21.9 mph N/A   Scattered Clouds
6:15 AM 41.4 °F 33.3 °F 27.5 °F 58% 30.25 in 10.0 mi WNW 16.1 mph 25.3 mph N/A   Overcast
6:35 AM 40.8 °F 32.6 °F 28.4 °F 61% 30.27 in 10.0 mi NW 16.1 mph 28.8 mph N/A   Overcast
6:55 AM 39.7 °F 31.9 °F 28.2 °F 63% 30.28 in 10.0 mi NW 13.8 mph 21.9 mph N/A   Overcast
7:15 AM 39.2 °F 29.6 °F 26.8 °F 61% 30.29 in 10.0 mi NNW 19.6 mph 25.3 mph N/A   Overcast
7:35 AM 39.2 °F 33.0 °F 26.1 °F 59% 30.31 in 10.0 mi NW 9.2 mph 19.6 mph N/A   Overcast
7:55 AM 38.7 °F 29.1 °F 25.7 °F 60% 30.32 in 10.0 mi NW 18.4 mph 28.8 mph N/A   Overcast
8:15 AM 37.6 °F 29.1 °F 23.9 °F 58% 30.33 in 10.0 mi NW 13.8 mph 24.2 mph N/A   Overcast
8:35 AM 37.4 °F 28.2 °F 23.0 °F 56% 30.35 in 10.0 mi NW 16.1 mph 24.2 mph N/A   Scattered Clouds
8:55 AM 37.2 °F 26.7 °F 20.7 °F 51% 30.35 in 10.0 mi WNW 20.7 mph 27.6 mph N/A   Clear
9:15 AM 36.5 °F 26.0 °F 19.8 °F 51% 30.37 in 10.0 mi NW 19.6 mph 27.6 mph N/A   Clear
9:35 AM 35.2 °F 24.7 °F 18.7 °F 51% 30.38 in 10.0 mi NW 18.4 mph 27.6 mph N/A   Clear
9:55 AM 35.4 °F 25.3 °F 18.7 °F 51% 30.39 in 10.0 mi NW 17.3 mph 26.5 mph N/A   Clear
10:15 AM 35.8 °F 25.7 °F 18.5 °F 50% 30.39 in 10.0 mi NW 17.3 mph 27.6 mph N/A   Clear
10:35 AM 36.7 °F 27.6 °F 18.9 °F 49% 30.39 in 10.0 mi NW 15.0 mph 19.6 mph N/A   Clear
10:55 AM 37.2 °F 29.1 °F 18.3 °F 46% 30.40 in 10.0 mi NW 12.7 mph 20.7 mph N/A   Clear
11:15 AM 37.4 °F 28.5 °F 19.0 °F 48% 30.39 in 10.0 mi West 15.0 mph 19.6 mph N/A   Clear
11:35 AM 37.8 °F 29.0 °F 18.1 °F 45% 30.39 in 10.0 mi WNW 15.0 mph 20.7 mph N/A   Clear
11:55 AM 38.1 °F 30.7 °F 18.1 °F 45% 30.39 in 10.0 mi WNW 11.5 mph 20.7 mph N/A   Clear
12:15 PM 38.3 °F 30.1 °F 18.1 °F 44% 30.37 in 10.0 mi West 13.8 mph 20.7 mph N/A   Clear
12:35 PM 38.7 °F 31.4 °F 17.2 °F 42% 30.37 in 10.0 mi WNW 11.5 mph 20.7 mph N/A   Clear
12:55 PM 38.8 °F 31.6 °F 16.3 °F 40% 30.37 in 10.0 mi WNW 11.5 mph 21.9 mph N/A   Clear
1:15 PM 39.2 °F 30.5 °F 16.0 °F 39% 30.37 in 10.0 mi WNW 16.1 mph 21.9 mph N/A   Clear
1:35 PM 39.4 °F 31.8 °F 16.2 °F 39% 30.36 in 10.0 mi WNW 12.7 mph 19.6 mph N/A   Clear
1:55 PM 39.6 °F 31.3 °F 14.9 °F 37% 30.36 in 10.0 mi WNW 15.0 mph 21.9 mph N/A   Clear
2:15 PM 39.6 °F 33.0 °F 14.9 °F 37% 30.36 in 10.0 mi WNW 10.4 mph 18.4 mph N/A   Clear
2:35 PM 40.1 °F 33.6 °F 14.9 °F 36% 30.36 in 10.0 mi WNW 10.4 mph - N/A   Clear
2:55 PM 40.1 °F 34.1 °F 15.3 °F 36% 30.37 in 10.0 mi WNW 9.2 mph 20.7 mph N/A   Clear
3:15 PM 39.7 °F 33.2 °F 14.9 °F 36% 30.37 in 10.0 mi NW 10.4 mph - N/A   Clear
3:35 PM 39.4 °F 32.3 °F 14.0 °F 36% 30.38 in 10.0 mi WNW 11.5 mph 17.3 mph N/A   Clear
3:55 PM 38.8 °F 32.1 °F 13.3 °F 35% 30.38 in 10.0 mi NW 10.4 mph 16.1 mph N/A   Clear
4:15 PM 38.1 °F 31.7 °F 13.5 °F 36% 30.38 in 10.0 mi NW 9.2 mph - N/A   Clear
4:35 PM 37.2 °F 29.6 °F 14.0 °F 39% 30.38 in 10.0 mi NW 11.5 mph 21.9 mph N/A   Clear
4:55 PM 36.5 °F 28.2 °F 12.9 °F 38% 30.38 in 10.0 mi NW 12.7 mph - N/A   Clear
5:15 PM 35.8 °F 29.4 °F 13.5 °F 40% 30.38 in 10.0 mi WNW 8.1 mph - N/A   Clear
5:35 PM 34.9 °F 28.3 °F 14.5 °F 43% 30.39 in 10.0 mi WNW 8.1 mph - N/A   Clear
5:55 PM 34.3 °F 27.0 °F 14.7 °F 45% 30.40 in 10.0 mi NW 9.2 mph - N/A   Clear
6:15 PM 33.8 °F 27.0 °F 15.3 °F 47% 30.40 in 10.0 mi NW 8.1 mph - N/A   Clear
6:35 PM 33.1 °F 26.1 °F 15.3 °F 48% 30.41 in 10.0 mi NW 8.1 mph - N/A   Clear
6:55 PM 32.5 °F 26.2 °F 15.4 °F 49% 30.41 in 10.0 mi NW 6.9 mph - N/A   Clear
7:15 PM 32.2 °F 25.8 °F 15.8 °F 51% 30.41 in 10.0 mi NW 6.9 mph - N/A   Clear
7:35 PM 32.0 °F 24.8 °F 15.6 °F 51% 30.40 in 10.0 mi NW 8.1 mph - N/A   Clear
7:55 PM 32.0 °F 25.6 °F 15.8 °F 51% 30.40 in 10.0 mi NW 6.9 mph - N/A   Clear
8:15 PM 31.5 °F 24.2 °F 15.8 °F 52% 30.41 in 10.0 mi NW 8.1 mph - N/A   Clear
8:35 PM 30.9 °F 23.5 °F 16.0 °F 54% 30.41 in 10.0 mi NW 8.1 mph - N/A   Clear
8:55 PM 30.4 °F 23.6 °F 16.3 °F 56% 30.41 in 10.0 mi NW 6.9 mph - N/A   Clear
9:15 PM 29.8 °F 24.9 °F 16.5 °F 58% 30.41 in 10.0 mi NW 4.6 mph - N/A   Clear
9:35 PM 29.7 °F 26.1 °F 16.3 °F 58% 30.40 in 10.0 mi NW 3.5 mph - N/A   Clear
9:55 PM 29.1 °F 25.4 °F 16.2 °F 58% 30.40 in 10.0 mi WNW 3.5 mph - N/A   Clear
10:15 PM 28.9 °F 23.9 °F 16.3 °F 59% 30.40 in 10.0 mi WNW 4.6 mph - N/A   Clear
10:35 PM 28.2 °F 24.4 °F 16.3 °F 61% 30.40 in 10.0 mi WNW 3.5 mph - N/A   Clear
10:55 PM 27.9 °F 21.5 °F 16.3 °F 62% 30.40 in 10.0 mi WNW 5.8 mph - N/A   Clear
11:15 PM 27.9 °F 22.6 °F 16.5 °F 62% 30.40 in 10.0 mi WNW 4.6 mph - N/A   Clear
11:35 PM 27.5 °F 21.1 °F 16.5 °F 63% 30.39 in 10.0 mi NW 5.8 mph - N/A   Clear
11:55 PM 27.1 °F 19.7 °F 16.5 °F 64% 30.39 in 10.0 mi NW 6.9 mph - N/A   Clear